User: anonymous   Login
Location: Batang Balui
(2.7000°N, 113.7833°E)
Time: 21:38:41
(UTC+00:00)
Language:

First-Move - Orbit

View from above orbital plane
View from above orbital plane
View from above satellite
View from above satellite

Ground track
Ground track

The orbit data is extracted from the following two-line orbital elements,

1 39439U 13066Z   24104.59051270  .00018112  00000-0  15211-2 0  9999
2 39439  97.7206  68.7477 0048633 356.6596   3.4294 14.97445007561201
Epoch (UTC): 13 April 2024 14:10:20
Eccentricity: 0.0048633
inclination: 97.7206°
perigee height: 541 km
apogee height: 608 km
right ascension of ascending node: 68.7477°
argument of perigee: 356.6596°
revolutions per day: 14.97445007
mean anomaly at epoch: 3.4294°
orbit number at epoch: 56120

The dashed part of the orbit path shows where the satellite is in the earth's shadow,  

DLR